ATLAS 5 CENTAUR DEB, 51477

Orbit data source: Space-Track

ATLAS 5 CENTAUR DEB, 51477 is space debris in HEO originally from a launch on Wed, 17 Sep 2014 UTC launched from the Air Force Eastern Test Range (AFETR). Debris objects in space refer to the collection of defunct objects orbiting the Earth. Examples of debris include non-operational satellites, rocket bodies, and fragments generated from explosions, collisions, or faulty payload assembly.

Loading next visibility...
Identifier
51477, 2014-055DH
Orbit
HEO
Country
Flag of USUS
Related business
Flag of USUnited Launch Alliance/Lockheed Martin (US)
Manufacturer
Unknown
Mission
Spacecraft
Bus & Motor
Unknown
Mass
Unknown
Launch date (UTC)
2014-09-17 (12 years ago)
Launch vehicle
Unknown
Launch site
Air Force Eastern Test Range (AFETR)
Object type
Payload
Rocket body
Debris
Shape & HBR
Unknown shape, 1.1 m
Radar Cross Section
RCS unknown

Expand to show TLE details & history
Last TLE update: 1 week ago

TLE from 1 week ago
0 ATLAS 5 CENTAUR DEB
1 51477U 14055DH  26228.39339868 -.00000305  00000-0  00000-0 0  9997
2 51477  21.3018  75.7724 5147650 287.9374  23.9114  1.94651993 28154
Epoch: 2026-08-16T09:26Z
TLE epoch observation values (Epoch: 2026-08-16T09:26:29.645Z)
Latitude
-0.00003°
Longitude
-30.55972°
Altitude
10,825.633 km
Speed
5.624 km/s
True Right ascension
05h 03m 25s
True Declination
0° 00' 00"
Sunlit
Object was in daylight at epoch
Visualization orbit readout
Latitude
Unknown
Longitude
Unknown
Altitude
Unknown
Speed
Unknown
Apparent Right ascension
Unknown
Apparent Declination
Unknown
Sunlit
N/A
Visualization observer readout
Local Sidereal Time
00:15:18
Azimuth
Unknown
Elevation
Unknown
Doppler factor
Unknown
Orbital elements
Apogee altitude
34,668.221 km
Perigee altitude
6,770.523 km
Semi-major axis
27,097.509 km
Eccentricity
0.51477
Inclination
21.3018°
RAAN
75.7724°
Arg. of periapsis
287.9374°
True anomaly
71.90065°
Mean anomaly
23.9114°
Eccentric anomaly
44.63252°
Mean motion
0.48657 °/min
Orbital period
739.87 mins
BSTAR
0
Loading maneuver chart data...
Computing Atmospheric mass density...

Documentation

Showing up to 5 results
|